OpenBCM V1.13 (Linux)

Packet Radio Mailbox

DB0FHN

[JN59NK Nuernberg]

 Login: GUEST





  
CX2SA  > KEPS     31.01.25 02:33l 335 Lines 15845 Bytes #999 (0) @ AMSAT
BID : ORB25031.1
Read: DJ6UX GUEST
Subj: 2Line Orbital Elements 25031.AMSAT
Path: DB0FHN<DB0LHR<OK1TOR<OE2XZR<OE6XPE<DB0ERF<IZ3LSV<I0OJJ<I0OJJ<LU1DBQ<
      LU9DCE<VK2RZ<N6PNK<VE3CGR<CX2SA
Sent: 250131/0024Z @:CX2SA.SAL.URY.SOAM #:47776 [Salto] FBB7.00e $:ORB25031.1

>From cx2sa%cx2sa.sal.ury.soam@i0ojj.ampr.org Fri Jan 31 01:30:11 2025
Received: from i0ojj.ampr.org by i0ojj.ampr.org (JNOS2.0p.5) with SMTP
	id AA17019990 ; Fri, 31 Jan 2025 01:30:11 +0100
Message-Id: <ORB25031.1@i0ojj.bbs>
>From: cx2sa@cx2sa.sal.ury.soam
X-JNOS-User-Port: Uplink   (I0OJJ-1 on port hub)  ->  Sending message

From: CX2SA@CX2SA.SAL.URY.SOAM
To  : KEPS@AMSAT


QST de W1STR

AMSAT Orbital Elements for Amateur Satellites in TLE Format
>From Orbital Analysis Office
New England Sci-Tech STEM Education Center
Natick, MA January 31, 2025
To all radio amateurs


These element sets describe the orbits of various satellites
in use by the amateur radio community. For details see:
www.amsat.org/keplerian-elements-formats/

A daily update of element sets is available at:
www.amsat.org/tle/daily-bulletin.txt
or without bulletin text:
www.amsat.org/tle/dailytle.txt


AO-07
1 07530U 74089B   25030.50890623 -.00000042  00000-0  30519-4 0  9995
2 07530 101.9925  33.3924 0012232  11.6130 114.2414 12.53685611297520
UO-11
1 14781U 84021B   25030.43783698  .00003433  00000-0  37413-3 0  9998
2 14781  97.7373 359.5851 0009211  54.1759 306.0313 14.88588269182274
AO-27
1 22825U 93061C   25030.14334330  .00000299  00000-0  13160-3 0  9993
2 22825  98.7573  90.9375 0009216 130.9370 229.2611 14.30718587635061
FO-29
1 24278U 96046B   25030.47684721  .00000078  00000-0  11778-3 0  9999
2 24278  98.5884 301.4083 0349406 319.7463  37.8274 13.53234644405426
NOAA-15
1 25338U 98030A   25030.80807533  .00000392  00000-0  17926-3 0  9997
2 25338  98.5495  58.9790 0010607  25.0099 335.1593 14.26870786389895
GO-32
1 25397U 98043D   25030.51844246  .00000260  00000-0  13287-3 0  9996
2 25397  98.9549   7.0359 0000917 170.0129 190.1068 14.24244329379776
ISS
1 25544U 98067A   25030.94616898  .00017245  00000-0  30159-3 0  9991
2 25544  51.6392 266.7922 0002197 150.6796  37.3757 15.50733764493879
NO-44
1 26931U 01043C   25030.49861470  .00000501  00000-0  21920-3 0  9991
2 26931  67.0508 104.1394 0006137 262.6652  97.3753 14.31602425218482
SO-50
1 27607U 02058C   25030.52470596  .00002663  00000-0  35765-3 0  9991
2 27607  64.5526 241.7711 0040499   7.6384 352.5329 14.80863023190171
CO-55
1 27844U 03031E   25030.47143452  .00000841  00000-0  38680-3 0  9993
2 27844  98.6785  40.4218 0009306 199.1656 160.9173 14.23794165120152
CO-57
1 27848U 03031J   25030.50081033  .00000703  00000-0  33063-3 0  9994
2 27848  98.6810  40.5520 0008886 216.7162 143.3409 14.23158528119862
RS-22
1 27939U 03042A   25030.78492916  .00002839  00000-0  46346-3 0  9993
2 27939  98.3114 197.2506 0012547  63.2079  50.4829 14.71679087141738
NOAA-18
1 28654U 05018A   25030.80654158  .00000411  00000-0  24153-3 0  9990
2 28654  98.8540 111.7023 0014993 135.8476 224.3896 14.13502142 15414
CO-58
1 28895U 05043F   25030.83400828  .00003812  00000-0  64230-3 0  9999
2 28895  98.2273 173.8055 0014915   1.8206 358.3051 14.70047804 28102
CO-65
1 32785U 08021C   25030.54576385  .00009358  00000-0  71978-3 0  9999
2 32785  97.7662   1.1012 0008580 300.3349  59.7026 15.01892936909542
AAUSAT2
1 32788U 08021F   25030.52891571  .00087406  00000-0  18433-2 0  9993
2 32788  97.6051  21.4807 0007596  93.4561 266.7556 15.44881790913158
CO-66
1 32791U 08021J   25030.43507712  .00018376  00000-0  10337-2 0  9993
2 32791  97.7157   8.1641 0002207 236.0914 124.0107 15.13317308910856
RS-30
1 32953U 08025A   25030.74979234  .00000042  00000-0  22899-3 0  9991
2 32953  82.5056 307.9446 0019404 331.8603  28.1427 12.43158025757403
NOAA-19
1 33591U 09005A   25030.79189945  .00000352  00000-0  21205-3 0  9990
2 33591  99.0166  94.6743 0013850  14.4172 345.7392 14.13273044823772
SRMSAT
1 37841U 11058D   25030.65262677  .00000654  00000-0  21194-3 0  9994
2 37841  19.9699 220.7532 0011808  75.9198 346.3923 14.11349704686730
ZACUBE-1
1 39417U 13066B   25030.46016112  .00008186  00000-0  75092-3 0  9990
2 39417  97.7645 348.5028 0047627 125.0435 235.5268 14.94258622605465
Delfi-N3xt
1 39428U 13066N   25030.75414934  .00012162  00000-0  13251-2 0  9995
2 39428  97.8387 310.1334 0091823  67.5732 293.5178 14.85043813599968
GOMX-1
1 39430U 13066Q   25030.84362566  .00004940  00000-0  78569-3 0  9990
2 39430  97.7003 257.3990 0133253 247.2811 111.4264 14.66664050596382
LO-74
1 39440U 13066AA  25030.58135909  .00008244  00000-0  87354-3 0  9994
2 39440  97.8375 336.3317 0062701 247.9538 111.5011 14.87919869603293
AO-73
1 39444U 13066AE  25030.60264274  .00011674  00000-0  95311-3 0  9992
2 39444  97.7486 352.6099 0043760 101.0844 259.5304 14.98812217604099
DTUSAT-2
1 40030U 14033W   25030.79934598  .00011553  00000-0  81766-3 0  9998
2 40030  98.0397 356.7679 0011261 131.6152 228.6040 15.04967293577364
EO-80
1 40032U 14033Y   25030.42798315  .00012967  00000-0  91498-3 0  9998
2 40032  98.0299 356.2112 0011443  82.8015 277.4511 15.05047833576770
XW-2C
1 40906U 15049H   25030.80894490  .00430960  75455-4  11744-2 0  9991
2 40906  97.4392  64.8982 0004250 158.1460 201.9997 15.94115119519939
LILACSAT-2
1 40908U 15049K   25030.84191891  .00015726  00000-0  47423-3 0  9995
2 40908  97.5163  48.3887 0008252 264.3279  95.7023 15.34357181518303
IO-86
1 40931U 15052B   25029.03811298  .00001879  00000-0  16388-3 0  9994
2 40931   5.9985 178.0957 0012329  44.5838 315.5281 14.78544596504930
Horyu-4
1 41340U 16012D   25030.39104433  .00028167  00000-0  97523-3 0  9992
2 41340  30.9978 282.3138 0005853 149.5177 210.5807 15.28655505492798
Lapan A3
1 41603U 16040E   25030.80386066  .00006220  00000-0  22763-3 0  9995
2 41603  97.1387  40.6197 0011960  21.9322 338.2428 15.28320230477952
CAS-2T
1 41847U 16066G   25030.48055941  .00003611  00000-0  52570-3 0  9992
2 41847  98.4352 106.0517 0348048 211.7367 146.2422 14.42817000432255
CAS-4B
1 42759U 17034B   25030.79769104  .00044458  00000-0  88934-3 0  9995
2 42759  43.0135   5.1267 0014628 108.0864 252.1589 15.45944388422409
CAS-4A
1 42761U 17034D   25030.83178816  .00047288  00000-0  93105-3 0  9997
2 42761  43.0174   2.9292 0015807 115.6729 244.5764 15.46362091422420
TechnoSat
1 42829U 17042E   25030.45185247  .00005763  00000-0  46531-3 0  9998
2 42829  97.3912 205.4774 0012988  20.6433 339.5313 15.00140542411200
AO-91
1 43017U 17073E   25030.18463097  .00016615  00000-0  90804-3 0  9994
2 43017  97.5481 264.3634 0182656 250.4430 107.6992 15.01140925389625
S-Net D
1 43186U 18014G   25030.48580646  .00010056  00000-0  63057-3 0  9993
2 43186  97.5746 294.8336 0008415 320.5839  39.4777 15.09497838382739
S-Net B
1 43187U 18014H   25030.68857679  .00009406  00000-0  59023-3 0  9994
2 43187  97.5752 294.9986 0009099 313.4349  46.6122 15.09486539382768
S-Net A
1 43188U 18014J   25030.22143959  .00010074  00000-0  63162-3 0  9996
2 43188  97.5757 294.6710 0009034 316.7233  43.3286 15.09496973382693
S-Net C
1 43189U 18014K   25030.62440443  .00009155  00000-0  57446-3 0  9995
2 43189  97.5774 295.0609 0010384 305.4057  54.6201 15.09483632381301
Ten-Koh
1 43677U 18084G   25030.45057371  .00005639  00000-0  46727-3 0  9992
2 43677  98.0814 197.5844 0012508 340.7738  19.3010 14.99212290340735
PO-101
1 43678U 18084H   25030.78763673  .00002968  00000-0  26186-3 0  9997
2 43678  98.0896 202.1256 0008897   2.5301 357.5963 14.97197844340954
QO-100
1 43700U 18090A   25030.25940396  .00000151  00000-0  00000-0 0  9997
2 43700   0.0148  77.5305 0000936 242.5235 288.8324  1.00270385 22631
MinXSS-2
1 43758U 18099A   25030.42369217  .00021119  00000-0  99533-3 0  9994
2 43758  97.5222  96.4823 0012386 251.6914 108.2973 15.19455722337167
AO-95
1 43770U 18099N   25030.57351832  .00014983  00000-0  84294-3 0  9997
2 43770  97.5130  90.3022 0010743 307.1935  52.8315 15.13306353336867
RANGE-A
1 43773U 18099R   25030.09334498  .00009322  00000-0  62625-3 0  9991
2 43773  97.4693  82.3129 0010677 281.2013  78.8014 15.06953658336555
MOVE-II
1 43780U 18099Y   25030.65469546  .00067513  00000-0  16996-2 0  9999
2 43780  97.4867 100.5110 0003787 258.6046 101.4774 15.39668468337619
SNUSat 2
1 43782U 18099AA  25030.59424536  .00010847  00000-0  64634-3 0  9995
2 43782  97.4813  88.0713 0011680 240.2523 119.7546 15.11303190336840
SnugLite
1 43784U 18099AC  25030.56412421  .00015261  00000-0  85264-3 0  9991
2 43784  97.4629  87.3985 0002655 239.9744 120.1225 15.13595536336942
ITASat 1
1 43786U 18099AE  25030.40825466  .00010570  00000-0  65101-3 0  9999
2 43786  97.4785  87.7396 0013914 298.2856  61.6969 15.10084985336794
EAGLET 1
1 43790U 18099AJ  25030.57806548  .00008052  00000-0  53934-3 0  9995
2 43790  97.4968  88.2118 0011422 276.0433  83.9493 15.07103192336479
ESEO
1 43792U 18099AL  25030.84522981  .00002911  00000-0  22813-3 0  9993
2 43792  97.4657  83.3950 0008960 229.4502 130.5944 15.01708782336344
CSIM
1 43793U 18099AM  25030.44587973  .00072526  00000-0  18308-2 0  9994
2 43793  97.5039 102.2387 0007421 232.5413 127.5158 15.39542933337420
JO-97
1 43803U 18099AX  25030.38709036  .00018003  00000-0  93736-3 0  9994
2 43803  97.4870  90.9125 0007279 235.7163 124.3381 15.16049656337012
Suomi 100
1 43804U 18099AY  25030.41913921  .00015481  00000-0  84634-3 0  9993
2 43804  97.4946  90.5417 0012273 237.4642 122.5405 15.14309257336973
ISAT
1 43879U 18111D   25030.56226739  .00026431  00000-0  11456-2 0  9998
2 43879  97.6055 302.7375 0008350 302.2072  57.8354 15.22324534331846
UWE-4
1 43880U 18111E   25030.72312496  .00021443  00000-0  10005-2 0  9991
2 43880  97.5988 302.1416 0012035 311.3439  48.6759 15.19805290331863
